Location: Newark
(45.2500°N, 7.5833°E)
Time: 07:24:58
(UTC+00:00)

A-11 Canister half - Pass Details

Date: 30 January 2020
Orbit: 1524 x 1684 km, 47.3° (Epoch: 20 February)

Event Time Altitude Azimuth Distance (km) Brightness Sun altitude
Rises 14:25:31 0° 206° (SSW) 4,664 13.1 17.0°
Reaches altitude 10° 14:28:51 10° 198° (SSW) 3,681 12.5 16.7°
Maximum altitude 14:36:58 36° 136° (SE) 2,245 10.1 15.7°
Drops below altitude 10° 14:45:12 10° 75° (ENE) 3,733 10.6 14.7°
Sets 14:48:35 0° 67° (ENE) 4,737 11.0 14.3°
